Regional Weather Roundup
Issued by NWS Charleston, SC

Home | Current Version | Previous Version | Text Only | Print | Product List | Glossary On
Versions: 1 2 3 4 5 6 7 8 9 10 11 12 13 14 15 16 17 18 19 20 21 22 23 24 25 26 27 28 29 30 31 32 33 34 35 36 37 38 39 40 41 42 43 44 45 46 47 48 49 50
000
ASUS42 KCHS 011710
RWRCHS

REGIONAL WEATHER ROUNDUP
NATIONAL WEATHER SERVICE CHARLESTON SC
100 PM EDT WED OCT 01 2014

NOTE: "FAIR" INDICATES FEW OR NO CLOUDS BELOW 12,000 FEET WITH NO
SIGNIFICANT WEATHER AND/OR OBSTRUCTIONS TO VISIBILITY.

NOT ALL STATIONS ARE QUALITY CONTROLLED BY THE NATIONAL
WEATHER SERVICE. USE DATA WITH CAUTION...ESPECIALLY
DEWPOINT OBSERVATIONS.

SCZ027-030-031-034>040-042>050-011800-
...SOUTH CAROLINA...

CITY           SKY/WX    TMP DP  RH WIND       PRES   REMARKS
N CHARLESTON   MOSUNNY   83  63  50 NE5       30.00F
WATERFRONT PRK   N/A     79 N/A N/A SE9         N/A
FORT JOHNSON   NOT AVBL
MOUNT PLEASANT FAIR      81  66  61 CALM      30.00F
JOHNS ISLAND   MOSUNNY   81  73  78 NE7       30.00F
PINOPOLIS        N/A     81  66  61 CALM      29.94S
MONCKS CORNER  FAIR      81  70  69 N6        30.00F
SUMMERVILLE    FAIR      82  64  54 E6        30.01F
BEAUFORT MCAS  MOSUNNY   84  65  52 VRB3      30.00F
BEAUFORT ARPT  FAIR      81  66  61 N5        30.00S
HILTON HEAD IS MOSUNNY   79  66  65 NE6       30.01F
GEORGETOWN     NOT AVBL
WALTERBORO     MOSUNNY   82  57  42 E6        30.01S
ORANGEBURG     SUNNY     83  62  49 VRB3      30.00F
BARNWELL       FAIR      82  63  51 NE5       30.01F
AIKEN          PTSUNNY   82  64  54 NE5       30.04F
MANNING        FAIR      81  66  61 E5        30.00F
KINGSTREE      NOT AVBL
COLUMBIA       MOSUNNY   85  61  44 CALM      29.99F
SUMTER         MOSUNNY   82  63  52 NE3       29.99F
FLORENCE       SUNNY     81  65  58 E6        30.01F
MYRTLE BEACH   MOSUNNY   77  64  65 SE12      30.00F
N MYRTLE BEACH SUNNY     77  65  66 S6        30.00S

$$

GAZ063-065-086>088-099>101-113>116-118-119-134-136>141-150-011800-
...GEORGIA...

CITY           SKY/WX    TMP DP  RH WIND       PRES   REMARKS
SAVANNAH ARPT  MOSUNNY   84  62  47 E7        30.00S
HUNTER AAF     MOSUNNY   83  66  55 VRB2      29.98S
FORT STEWART   MOSUNNY   83  65  54 N2        29.98F
STATESBORO     NOT AVBL
SYLVANIA       MOSUNNY   85  68  56 CALM      30.01F
CLAXTON        FAIR      84  63  48 CALM      30.00S
THOMSON        MOSUNNY   82  67  60 CALM      30.06S
AUGUSTA-BUSH   SUNNY     84  62  47 NE6       29.99F
AUGUSTA-DANIEL SUNNY     83  61  47 S5        30.01F
SWAINSBORO     FAIR      84  66  54 N5        30.01F
VIDALIA        MOSUNNY   81  64  57 E3        30.00F HAZE
ALMA           PTSUNNY   82  65  56 E5        29.99F
WAYCROSS       CLOUDY    82  71  68 E3        30.00S
JESUP          PTSUNNY   86  70  58 CALM      29.99F HX  90
BRUNSWICK      CLOUDY    81  66  61 NE8       30.00S
SAINT SIMONS   CLOUDY    80  68  66 VRB7      29.99F

$$

SCZ027-028-034-036>038-045-046-048>050-GAZ119-141-011800-
...LAKE AND SUPPLEMENTAL COASTAL OBSERVATIONS...

STATION/POSITION TIME  TEMP    WIND        PRES    WAVE   SWELL
                       AIR SEA DIR/SP/G            HT/PER HT/PER/DIR
                 (UTC) (F)     (DEG/KT/KT) (MB)    (FT/S) (FT/S/D)
UPR LAKE MARION  NOT AVBL
WINYAH BAY       1600   74      70/  8     1016.0S
LAKE MURRAY      1600   78     180/  5/  6 1015.2F
ACE BASIN NERRS  NOT AVBL
FORT PULASKI     1700   76      70/  9/  9 1016.1S
SAPELO ISLAND    NOT AVBL

$$

ANZ835-935-AMZ111-154-330-350-352-354-374-450-454-472-011800-
...C-MAN AND BUOY OBSERVATIONS...

STATION/POSITION TIME  TEMP    WIND        PRES    WAVE   SWELL
                       AIR SEA DIR/SP/G            HT/PER HT/PER/DIR
                 (UTC) (F)     (DEG/KT/KT) (MB)    (FT/S) (FT/S/D)
FOLLY BEACH CMAN 1600   75      80/  5/  6 1016.6R
BUOY 41004       1700   77 81   30/  8/ 12 1015.2S   3/ 6   2/ 6
BUOY 41008       1700   76 79   40/  8/ 10 1015.4F   2/ 6   2/ 80/ 6
5E ST. MARYS GA  1700      79                N/A     3/ 8
FRYING PAN BUOY  NOT AVBL
BUOY 41025       1600   72     360/ 16/ 19 1014.4R   4/ 7   2/ 70/ 7
CAPE LOOKOUT NC  1600   75      30/ 10/ 14 1015.2S
BUOY 41002       1650   76 81   90/  4/  6 1012.8R   3/ 5   3/ 30/ 5
BUOY 41010       1700   77 84   40/  6/  8 1014.1F   3/ 8   3/ 20/ 8
BUOY 41012       NOT AVBL
ST AUGUSTINE FL  1700   80      50/  9/  9 1015.1F
CAPERS NEARSHORE 1600   76      70/  6/  6   N/A
FRIPP NEARSHORE  NOT AVBL


$$



USA.gov is the U.S. government's official web portal to all federal, state and local government web resources and services.